Tracking 19794 objects as of 21-Jul-2019
HD Live streaming from Space Station
objects crossing your sky now

FENGYUN 1C DEB

Track FENGYUN 1C DEB now!
10-day predictions


NORAD ID: 33692
Int'l Code: 1999-025DGD
Perigee: 662.2 km
Apogee: 690.9 km
Inclination: 99.1 °
Period: 98.1 minutes
Semi major axis: 7047 km
RCS: 0.0151 m2 (small)
Launch date: May 10, 1999
Source: People's Republic of China (PRC)
Launch site: Taiyaun Space Center, China (TSC)

Note: This is SATELLITE DEBRIS
aabbcc
Your satellite tracking list
Your tracking list is empty




NASA's NSSDC Master Catalog

Two Line Element Set (TLE):
1 33692U 99025DGD 19201.14152986  .00002481  00000-0  44809-3 0  9990
2 33692  99.1190 162.9885 0020391 236.5299 180.1571 14.67397464593139
Source of the keplerian elements: AFSPC